{"data":{"norad_id":68302,"epoch":"2026-05-24T21:09:21.752064Z","epoch_age_seconds":75361,"freshness":"FRESH","line1":"1 68302U 26057J   26144.88150176  .00273105  00000+0  17753-2 0  9994","line2":"2 68302  97.2844 271.1809 0001098  74.5827 285.5559 15.75172050 10287","mean_motion":15.7517205,"eccentricity":0.0001098,"inclination_deg":97.2844,"raan_deg":271.1809,"arg_perigee_deg":74.5827,"mean_anomaly_deg":285.5559,"bstar":0.0017753,"rev_number":1028,"period_min":91.418585036473,"perigee_km":343.40353151816,"apogee_km":344.879743907,"semimajor_km":6722.2786377126,"source":"CELESTRAK","updated_at":"2026-05-25T13:38:21.917206Z"}}